Stations météo

réclame
Mon MeteoGroup
Mierkenis, Suède (2121): Température de l'air & dewpoint: 12.12.2017 23:00:00 - 18.12.2017 23:00:00 (CET)Mierkenis, Suède (2121): Vitesse du vent & gusts: 12.12.2017 23:00:00 - 18.12.2017 23:00:00 (CET)Mierkenis, Suède (2121): Direction du vent: 12.12.2017 23:00:00 - 18.12.2017 23:00:00 (CET)Mierkenis, Suède (2121): reduced air pressure: 12.12.2017 23:00:00 - 18.12.2017 23:00:00 (CET)Mierkenis, Suède (2121): visibility: 12.12.2017 23:00:00 - 18.12.2017 23:00:00 (CET)Mierkenis, Suède (2121): Quantités de précipitations: 12.12.2017 23:00:00 - 18.12.2017 23:00:00 (CET)
Date & Time tt [°C] td [°C] ff [km/h] ff [knt] fx [km/h] fx [knt] dd ppp [hPa] vv [km] rr [mm]
18.12.2017 23:00:00 -16,3 -18,1 7 4 14 8 NW 1017,9 50 0,0
18.12.2017 22:00:00 -17,8 -20,0 8 5 14 8 NW 1017,7 50 0,0
18.12.2017 21:00:00 -16,4 -18,2 5 3 18 10 WNW 1016,4 50 0,0
18.12.2017 20:00:00 -14,9 -16,3 14 8 18 10 NNW 1015,8 16 0,0
18.12.2017 19:00:00 -16,5 -18,4 7 4 16 8 NW 1014,8 6 0,0
18.12.2017 18:00:00 -14,3 -15,7 9 5 16 8 W 1014,1 50 0,0
18.12.2017 17:00:00 -13,2 -15,0 4 2 15 8 NW 1012,2 49 0,0
18.12.2017 16:00:00 -11,2 -12,8 5 3 8 4 WNW 1010,7 50 0,0
18.12.2017 15:00:00 -10,8 -12,1 3 1 8 4 WNW 1009,7 50 0,0
18.12.2017 14:00:00 -11,0 -12,6 2 1 7 4 SE 1009,0 9 0,1
18.12.2017 13:00:00 -9,9 -11,2 4 2 9 5 WNW 1008,0 6 0,1
18.12.2017 12:00:00 -10,5 -12,0 3 1 9 5 SE 1008,0 6 0,1
18.12.2017 11:00:00 -9,9 -11,2 0 0 5 3 N 1007,5 5 0,1
18.12.2017 10:00:00 -10,4 -11,9 0 0 6 3 N 1007,6 5 0,1
18.12.2017 09:00:00 -10,1 -11,4 2 1 9 5 NW 1006,9 6 0,0
18.12.2017 08:00:00 -10,8 -12,1 6 3 13 7 SE 1006,6 50 0,0
18.12.2017 07:00:00 -11,5 -12,8 9 5 14 7 NNW 1006,4 50 0,0
18.12.2017 06:00:00 -12,4 -13,8 6 3 14 7 NW 1006,3 50 0,0
18.12.2017 05:00:00 -13,8 -15,5 7 4 15 8 NW 1006,7 50 0,0
18.12.2017 04:00:00 -13,8 -15,5 6 3 15 8 WNW 1006,6 50 0,0
18.12.2017 03:00:00 -13,7 -15,3 5 3 13 7 NW 1006,2 50 0,0
18.12.2017 02:00:00 -13,0 -14,4 9 5 13 7 NW 1005,6 50 0,0
18.12.2017 01:00:00 -14,2 -15,9 8 4 13 7 WNW 1005,4 50 0,0
18.12.2017 00:00:00 -11,1 -12,6 5 3 12 7 NW 1004,9 50 0,0
17.12.2017 23:00:00 -11,3 -12,7 6 4 11 6 NW 1004,8 6 0,0
17.12.2017 22:00:00 -10,4 -11,7 4 2 11 6 NNW 1004,2 15 0,0
17.12.2017 21:00:00 -11,0 -12,6 4 2 8 4 N 1003,8 19 0,0
17.12.2017 20:00:00 -9,8 -11,0 4 2 8 4 NNW 1003,1 4,2 0,1
17.12.2017 19:00:00 -9,3 -10,6 3 1 10 6 WNW 1002,6 2,2 0,4
17.12.2017 18:00:00 -9,3 -10,5 4 2 11 6 S 1002,3 0,9 0,3
17.12.2017 17:00:00 -8,7 -9,9 4 2 11 6 SSE 1001,9 7 0,0
17.12.2017 16:00:00 -8,3 -9,4 3 2 12 7 SE 1001,7 5 0,1
17.12.2017 15:00:00 -8,1 -9,3 9 5 12 7 SE 1001,7 7 0,0
17.12.2017 14:00:00 -8,1 -9,3 5 3 11 6 SSE 1001,8 21 0,0
17.12.2017 13:00:00 -8,7 -9,8 4 2 16 9 NNW 1002,1 18 0,0
17.12.2017 12:00:00 -9,1 -10,3 4 2 16 9 SSE 1002,5 14 0,0
17.12.2017 11:00:00 -10,8 -12,1 5 3 16 9 N 1003,0 50 0,0
17.12.2017 10:00:00 -12,6 -14,0 4 2 12 7 SSE 1003,7 27 0,0
17.12.2017 09:00:00 -9,2 -10,3 5 3 12 7 NW 1003,3 50 0,0
17.12.2017 08:00:00 -8,0 -9,3 4 2 10 5 W 1003,0 50 0,0
17.12.2017 07:00:00 -7,6 -8,7 2 1 21 11 E 1003,0 50 0,0
17.12.2017 06:00:00 -5,0 -6,4 6 3 25 13 WNW 1002,4 50 0,1
17.12.2017 05:00:00 -4,2 -4,9 13 7 27 15 NNW 1002,3 1,5 0,1
17.12.2017 04:00:00 -4,6 -5,4 9 5 27 15 NW 1002,2 35 0,0
17.12.2017 03:00:00 -5,1 -5,8 11 6 24 13 WNW 1002,4 9 0,0
17.12.2017 02:00:00 -12,9 -14,5 4 2 17 9 NW 1003,5 50 0,0
17.12.2017 01:00:00 -14,4 -16,1 8 5 17 9 NNW 1003,8 50 0,0
17.12.2017 00:00:00 -15,0 -16,8 6 3 15 8 NW 1003,6 50 0,0
16.12.2017 23:00:00 -16,3 -18,1 10 5 14 8 NNW 1003,7 41 0,0
16.12.2017 22:00:00 -17,0 -18,9 7 4 17 9 WNW 1004,0 11 0,0
16.12.2017 21:00:00 -18,5 -20,5 11 6 17 9 NNW 1004,1 47 0,0
16.12.2017 20:00:00 -19,8 -21,9 5 3 12 7 N 1004,3 44 0,0
16.12.2017 19:00:00 -20,7 -23,0 6 4 13 7 NNW 1004,2 47 0,0
16.12.2017 18:00:00 -18,8 -21,0 4 2 16 9 SSE 1004,1 50 0,0
16.12.2017 17:00:00 -21,4 -23,6 9 5 16 9 NNW 1004,2 50 0,0
16.12.2017 16:00:00 -24,0 -26,6 9 5 16 8 NW 1004,3 50 0,0
16.12.2017 15:00:00 -23,8 -26,3 5 3 14 7 WNW 1004,0 50 0,0
16.12.2017 14:00:00 -23,2 -25,7 8 5 13 7 NNW 1003,6 50 0,0
16.12.2017 13:00:00 -23,3 -25,8 6 3 13 7 NNW 1003,3 41 0,0
16.12.2017 12:00:00 -22,2 -24,6 8 5 13 7 NW 1003,0 21 0,0
16.12.2017 11:00:00 -19,5 -21,6 8 4 10 5 NW 1002,6 1,7 0,0
16.12.2017 10:00:00 -18,3 -20,3 4 2 6 3 NNW 1001,9 1,5 0,0
16.12.2017 09:00:00 -17,4 -19,4 2 1 6 4 N 1001,0 11 0,0
16.12.2017 08:00:00 -14,6 -16,3 4 2 6 4 SE 1000,3 6 0,0
16.12.2017 07:00:00 -14,1 -15,8 2 1 9 5 S 999,9 8 0,0
16.12.2017 06:00:00 -13,9 -15,5 4 2 9 5 SE 999,8 3,2 0,0
16.12.2017 05:00:00 -13,3 -14,9 0 0 12 7 N 999,4 2,3 0,0
16.12.2017 04:00:00 -12,9 -14,5 4 2 12 7 E 999,0 2,5 0,0
16.12.2017 03:00:00 -12,4 -13,8 5 3 11 6 ESE 998,8 2,5 0,0
16.12.2017 02:00:00 -12,1 -13,4 6 3 11 6 ESE 998,5 3,0 0,0
16.12.2017 01:00:00 -11,6 -13,0 2 1 8 4 S 997,8 6 0,0
16.12.2017 00:00:00 -11,2 -12,5 2 1 8 5 E 997,7 12 0,0
15.12.2017 23:00:00 -11,7 -13,1 3 2 8 5 E 997,6 15 0,0
15.12.2017 22:00:00 -12,4 -13,8 4 2 6 4 ESE 997,6 16 0,0
15.12.2017 21:00:00 -13,5 -15,2 3 2 7 4 SE 997,3 17 0,0
15.12.2017 20:00:00 -13,6 -15,3 0 0 7 4 N 996,9 30 0,0
15.12.2017 19:00:00 -15,0 -16,8 2 1 8 4 NNW 996,8 19 0,0
15.12.2017 18:00:00 -14,9 -16,4 4 2 11 6 WNW 996,8 44 0,0
15.12.2017 17:00:00 -13,8 -15,6 6 3 11 6 NW 996,4 9 0,0
15.12.2017 16:00:00 -14,8 -16,5 6 3 11 6 NW 996,4 8 0,0
15.12.2017 15:00:00 -17,0 -19,1 5 3 11 6 NW 996,2 20 0,0
15.12.2017 14:00:00 -16,7 -18,6 6 3 13 7 NW 995,9 30 0,0
15.12.2017 13:00:00 -17,6 -19,5 7 4 13 7 NW 995,8 21 0,0
15.12.2017 12:00:00 -18,2 -20,2 6 3 11 6 NW 995,7 40 0,0
15.12.2017 11:00:00 -17,2 -19,3 3 1 9 5 NNW 995,1 10 0,0
15.12.2017 10:00:00 -15,7 -17,6 3 2 7 4 NNW 994,6 11 0,0
15.12.2017 09:00:00 -13,8 -15,5 5 3 7 4 WNW 993,8 3,3 0,1
15.12.2017 08:00:00 -11,9 -13,5 5 3 7 4 NNW 993,0 2,7 0,1
15.12.2017 07:00:00 -11,4 -12,8 3 2 6 3 WNW 992,3 2,8 0,1
15.12.2017 06:00:00 -11,0 -12,5 0 0 6 3 N 992,0 1,5 0,1
15.12.2017 05:00:00 -10,7 -12,0 2 1 6 3 W 991,7 1,4 0,2
15.12.2017 04:00:00 -11,2 -12,7 3 2 5 3 NNW 991,4 1,9 0,1
15.12.2017 03:00:00 -11,7 -13,1 0 0 4 2 N 991,4 7 0,0
15.12.2017 02:00:00 -11,5 -12,9 0 0 5 3 N 991,0 3,9 0,1
15.12.2017 01:00:00 -11,8 -13,2 0 0 6 3 N 990,9 8 0,1
15.12.2017 00:00:00 -11,5 -12,9 2 1 6 3 NW 990,5 4,7 0,1
14.12.2017 23:00:00 -11,2 -12,7 0 0 7 4 N 990,4 8 0,1
14.12.2017 22:00:00 -11,9 -13,3 0 0 9 5 N 990,5 4,5 0,2
14.12.2017 21:00:00 -12,6 -14,2 6 4 9 5 SE 990,2 2,5 0,1
14.12.2017 20:00:00 -12,2 -13,6 3 2 10 5 ESE 989,8 12 0,3
14.12.2017 19:00:00 -10,7 -12,0 5 3 11 6 NW 989,5 1,3 0,3
14.12.2017 18:00:00 -11,7 -13,1 6 3 11 6 NW 989,6 2,4 0,3
14.12.2017 17:00:00 -13,9 -15,5 8 5 11 6 NW 990,0 6 0,0
14.12.2017 16:00:00 -15,3 -17,1 4 2 8 4 NNW 990,2 50 0,0
14.12.2017 15:00:00 -16,8 -18,7 3 2 8 5 NW 990,3 50 0,0
14.12.2017 14:00:00 -18,3 -20,3 2 1 16 9 NNE 990,2 50 0,0
14.12.2017 13:00:00 -19,2 -21,2 4 2 16 9 SE 990,2 50 0,0
14.12.2017 12:00:00 -21,8 -24,3 10 6 14 8 NW 990,4 50 0,0
14.12.2017 11:00:00 -24,1 -26,8 7 4 11 6 NW 990,9 50 0,0
14.12.2017 10:00:00 -24,1 -26,7 9 5 13 7 NW 990,6 50 0,0
14.12.2017 09:00:00 -22,4 -24,9 8 5 14 7 NW 989,8 50 0,0
14.12.2017 08:00:00 -22,7 -25,1 6 3 14 7 NW 989,4 50 0,0
14.12.2017 07:00:00 -22,8 -25,2 9 5 13 7 NW 989,1 50 0,0
14.12.2017 06:00:00 -21,1 -23,1 8 4 13 7 WNW 988,3 50 0,0
14.12.2017 05:00:00 -21,3 -23,5 8 4 16 9 NW 988,1 50 0,0
14.12.2017 04:00:00 -20,6 -22,6 8 4 16 9 NNW 987,7 50 0,0
14.12.2017 03:00:00 -18,8 -20,8 5 3 13 7 NNW 987,2 50 0,0
14.12.2017 02:00:00 -16,9 -18,7 6 4 11 6 WNW 986,5 50 0,0
14.12.2017 01:00:00 -15,0 -16,5 7 4 14 7 NW 985,7 50 0,0
14.12.2017 00:00:00 -13,1 -15,1 8 5 14 7 NNW 985,1 50 0,0
13.12.2017 23:00:00 -12,9 -14,5 5 3 10 6 NW 985,0 50 0,0
13.12.2017 22:00:00 -11,8 -13,0 5 3 9 5 NW 984,4 50 0,0
13.12.2017 21:00:00 -10,7 -12,2 4 2 11 6 NNW 984,4 50 0,0
13.12.2017 20:00:00 -10,4 -12,3 2 1 11 6 ESE 984,0 50 0,0
13.12.2017 19:00:00 -12,0 -13,7 3 2 13 7 SE 984,2 50 0,0
13.12.2017 18:00:00 - - - - - - - - - -
13.12.2017 17:00:00 - - - - - - - - - -
13.12.2017 16:00:00 - - - - - - - - - -
13.12.2017 15:00:00 - - - - - - - - - -
13.12.2017 14:00:00 - - - - - - - - - -
13.12.2017 13:00:00 -8,1 -12,2 17 9 38 20 NNW 982,9 50 0,0
13.12.2017 12:00:00 -8,1 -12,6 23 12 38 20 NNW 982,8 50 0,0
13.12.2017 11:00:00 -8,2 -11,8 22 12 38 20 NNW 983,0 43 0,0
13.12.2017 10:00:00 -14,0 -15,7 2 1 17 9 S 984,1 50 0,0
13.12.2017 09:00:00 -14,7 -16,5 4 2 17 9 WSW 984,5 50 0,0
13.12.2017 08:00:00 -15,2 -17,1 10 5 15 8 W 984,8 50 0,0
13.12.2017 07:00:00 -16,3 -18,1 5 3 16 9 NNW 985,1 50 0,0
13.12.2017 06:00:00 -18,3 -20,1 10 5 16 9 NNW 985,9 50 0,0
13.12.2017 05:00:00 -19,7 -21,6 9 5 12 7 NW 986,9 50 0,0
13.12.2017 04:00:00 -21,1 -23,5 5 3 11 6 WNW 987,8 37 0,0
13.12.2017 03:00:00 -19,4 -21,6 5 3 12 7 NW 988,3 13 0,0
13.12.2017 02:00:00 -14,0 -15,4 9 5 12 7 NNW 988,3 0,7 0,0
13.12.2017 01:00:00 -11,1 -12,1 5 3 8 5 WNW 988,5 6 0,0
13.12.2017 00:00:00 -11,8 -13,2 3 2 7 4 NNW 989,5 47 0,0
12.12.2017 23:00:00 -12,6 -14,0 0 0 8 4 N 990,6 50 0,0

tt = Température de l'air
td = dewpoint
ff = Vitesse du vent
fx = gusts
dd = Direction du vent
ppp = reduced air pressure
vv = visibility
rr = Quantités de précipitations

stations d'obs. à proximité